Weather History for Sioux Falls, SD

Change the Weather History Date:

Saturday, May 5, 2012

  Actual Average Record
Temperature  
Mean Temperature 63 °F 54 °F  
Max Temperature 67 °F 67 °F 94 °F (1909)
Min Temperature 58 °F 42 °F 23 °F (1954)
Degree Days  
Heating Degree Days 2 11  
Month to date heating degree days 4 58  
Since 1 July heating degree days 5889 7465  
Cooling Degree Days 0 1  
Month to date cooling degree days 10 1  
Year to date cooling degree days 38 6  
Growing Degree Days 12 (Base 50)    
Moisture  
Dew Point 58 °F    
Average Humidity 87    
Maximum Humidity 100    
Minimum Humidity 65    
Precipitation  
Precipitation 0.02 in 0.11 in 1.68 in (1942)
Month to date precipitation 0.60 0.54  
Year to date precipitation 6.95 6.47  
Snow  
Snow 0.00 in 0.00 in 3.00 in (1944)
Month to date snowfall 0.0 0.2  
Since 1 July snowfall 15.9 44.7  
Snow Depth 0.00 in    
Sea Level Pressure  
Sea Level Pressure 29.85 in    
Wind  
Wind Speed 15 mph (ENE)    
Max Wind Speed 29 mph    
Max Gust Speed 39 mph    
Visibility 7 miles    
Events Fog , Rain , Thunderstorm    
T = Trace of Precipitation, MM = Missing Value Source: NWS Daily Summary

Daily Weather History Graph

Daily Weather History Graph

Search for Another Location

Airport:

Trip Planner

Search our weather history database for the weather conditions in past years. The results will help you decide how hot, cold, wet, or windy it might be!

Date:

Astronomy

May. 05, 2012 Rise Set
Actual Time 6:13 AM CDT 8:34 PM CDT
Civil Twilight 5:41 AM CDT 9:06 PM CDT
Nautical Twilight 5:01 AM CDT 9:46 PM CDT
Astronomical Twilight 4:17 AM CDT 10:30 PM CDT
Moon 8:29 PM CDT (5/5) 5:37 AM CDT (5/5)
Length of Visible Light 15h 25m
Length of Day
14h 21m
Full, 100% of the Moon is Illuminated
May 5
Full
May 5
Full
May 12
Last Quarter
May 20
New
May 28
First Quarter

Hourly Weather History & Observations

Time (CDT) Temp. Dew Point Humidity Pressure Visibility Wind Dir Wind Speed Gust Speed Precip Events Conditions
12:08 AM 62.6 °F 60.8 °F 94% 29.89 in 9.0 mi NNE 5.8 mph - N/A   Overcast
12:10 AM 62.6 °F 59.0 °F 88% 29.89 in 9.0 mi NNE 5.8 mph - N/A   Overcast
12:36 AM 62.6 °F 59.0 °F 88% 29.91 in 10.0 mi ENE 9.2 mph - N/A   Overcast
12:56 AM 62.1 °F 60.1 °F 93% 29.90 in 9.0 mi NE 9.2 mph - N/A   Overcast
1:40 AM 60.8 °F 57.2 °F 88% 29.91 in 8.0 mi NNE 6.9 mph - N/A   Mostly Cloudy
1:45 AM 60.8 °F 59.0 °F 94% 29.90 in 8.0 mi NNE 5.8 mph - N/A   Mostly Cloudy
1:56 AM 61.0 °F 57.9 °F 90% 29.89 in 9.0 mi NNE 5.8 mph - N/A   Mostly Cloudy
2:56 AM 60.1 °F 57.9 °F 93% 29.88 in 8.0 mi NE 6.9 mph - N/A   Clear
3:56 AM 59.0 °F 57.2 °F 94% 29.87 in 6.0 mi NE 9.2 mph - N/A   Clear
4:30 AM 60.8 °F 57.2 °F 88% 29.87 in 7.0 mi NE 9.2 mph - N/A   Scattered Clouds
4:41 AM 60.8 °F 57.2 °F 88% 29.87 in 7.0 mi ENE 12.7 mph - N/A   Mostly Cloudy
4:50 AM 60.8 °F 57.2 °F 88% 29.87 in 6.0 mi East 11.5 mph - N/A   Overcast
4:56 AM 60.1 °F 57.9 °F 93% 29.86 in 6.0 mi ENE 12.7 mph - N/A   Overcast
5:56 AM 59.0 °F 57.9 °F 96% 29.86 in 5.0 mi NE 11.5 mph - N/A   Overcast
6:37 AM 59.0 °F 57.2 °F 94% 29.86 in 1.5 mi ENE 9.2 mph - N/A   Overcast
6:56 AM 59.0 °F 57.9 °F 96% 29.86 in 2.0 mi ENE 12.7 mph - N/A   Overcast
7:14 AM 59.0 °F 57.2 °F 94% 29.86 in 6.0 mi ENE 10.4 mph - N/A   Overcast
7:29 AM 59.0 °F 57.2 °F 94% 29.85 in 2.5 mi ENE 11.5 mph - N/A   Overcast
7:56 AM 60.1 °F 57.9 °F 93% 29.86 in 2.5 mi East 11.5 mph - N/A   Overcast
8:12 AM 60.8 °F 57.2 °F 88% 29.86 in 1.5 mi East 10.4 mph - N/A   Overcast
8:25 AM 60.8 °F 59.0 °F 94% 29.86 in 0.5 mi East 13.8 mph - 0.00 in   Light Drizzle
8:51 AM 60.8 °F 60.8 °F 100% 29.86 in 1.2 mi ENE 12.7 mph - 0.00 in   Light Drizzle
8:56 AM 61.0 °F 60.1 °F 97% 29.85 in 1.0 mi East 11.5 mph - 0.00 in   Light Drizzle
9:50 AM 62.6 °F 60.8 °F 94% 29.85 in 0.8 mi East 13.8 mph - 0.00 in   Light Drizzle
9:56 AM 62.1 °F 61.0 °F 96% 29.84 in 0.5 mi East 15.0 mph - 0.00 in Fog Light Drizzle
10:27 AM 62.6 °F 60.8 °F 94% 29.91 in 0.5 mi NNW 15.0 mph - 0.00 in Fog , Thunderstorm Unknown
10:52 AM 59.0 °F 55.4 °F 88% 29.90 in 1.0 mi NE 17.3 mph 39.1 mph 0.02 in Rain , Thunderstorm Light Thunderstorms and Rain
10:56 AM 59.0 °F 55.4 °F 88% 29.90 in 5.0 mi NE 15.0 mph 31.1 mph N/A Rain , Thunderstorm Light Thunderstorms and Rain
11:02 AM 59.0 °F 55.4 °F 88% 29.91 in 10.0 mi NE 11.5 mph - 0.00 in Thunderstorm Thunderstorm
11:09 AM 59.0 °F 55.4 °F 88% 29.90 in 10.0 mi North 12.7 mph - 0.00 in Thunderstorm Thunderstorm
11:19 AM 57.2 °F 55.4 °F 94% 29.88 in 10.0 mi NE 16.1 mph 19.6 mph 0.00 in   Mostly Cloudy
11:46 AM 59.0 °F 57.2 °F 94% 29.88 in 10.0 mi NE 12.7 mph - 0.00 in   Scattered Clouds
11:56 AM 60.1 °F 55.9 °F 86% 29.87 in 10.0 mi NE 13.8 mph - 0.00 in   Scattered Clouds
12:56 PM 60.1 °F 54.0 °F 80% 29.88 in 10.0 mi ENE 10.4 mph 21.9 mph N/A   Overcast
1:56 PM 64.0 °F 57.0 °F 78% 29.85 in 10.0 mi ENE 16.1 mph - N/A   Mostly Cloudy
2:56 PM 66.0 °F 59.0 °F 78% 29.84 in 10.0 mi East 23.0 mph 26.5 mph N/A   Overcast
3:20 PM 64.4 °F 57.2 °F 77% 29.84 in 10.0 mi East 19.6 mph 25.3 mph N/A   Overcast
3:56 PM 64.9 °F 57.9 °F 78% 29.83 in 10.0 mi East 20.7 mph 28.8 mph N/A   Overcast
4:56 PM 66.0 °F 57.0 °F 73% 29.81 in 10.0 mi East 23.0 mph 27.6 mph N/A   Overcast
5:56 PM 66.0 °F 57.0 °F 73% 29.81 in 10.0 mi ENE 18.4 mph 24.2 mph N/A   Overcast
6:56 PM 66.0 °F 57.0 °F 73% 29.80 in 10.0 mi ENE 16.1 mph - N/A   Overcast
7:56 PM 66.0 °F 57.0 °F 73% 29.78 in 10.0 mi East 15.0 mph 25.3 mph N/A   Mostly Cloudy
8:56 PM 64.9 °F 57.0 °F 75% 29.75 in 10.0 mi East 19.6 mph 25.3 mph N/A   Mostly Cloudy
9:06 PM 64.4 °F 57.2 °F 77% 29.75 in 10.0 mi East 17.3 mph 26.5 mph N/A   Scattered Clouds
9:56 PM 64.9 °F 57.0 °F 75% 29.75 in 10.0 mi East 15.0 mph - N/A   Scattered Clouds
11:20 PM 66.2 °F 60.8 °F 83% 29.74 in 10.0 mi ENE 12.7 mph - N/A   Mostly Cloudy
11:56 PM 66.0 °F 62.1 °F 87% 29.75 in 10.0 mi ENE 10.4 mph - N/A   Overcast